Regional Weather Roundup
Issued by NWS

Home | Current Version | Previous Version | Graphics & Text | Print | Product List | Glossary On
Versions: 1 2 3 4 5 6 7 8 9 10 11 12 13 14 15 16 17 18 19 20 21 22 23 24 25 26 27 28 29 30 31 32 33 34 35 36 37 38 39 40 41 42 43 44 45 46 47 48 49 50
000
ASUS43 KFSD 241610
RWRSD

WEATHER ROUNDUP FOR SOUTH DAKOTA
NATIONAL WEATHER SERVICE SIOUX FALLS SD
1100 AM CDT FRI MAR 24 2017

NOTE: "FAIR" INDICATES FEW OR NO CLOUDS BELOW 12,000 FEET WITH NO
SIGNIFICANT WEATHER AND/OR OBSTRUCTIONS TO VISIBILITY.


SDZ001>005-009-010-012>017-241700-
NORTHWEST AND NORTH CENTRAL SOUTH DAKOTA

CITY           SKY/WX    TMP DP  RH WIND       PRES   REMARKS
BUFFALO          N/A     50  41  71 NW6       30.04R
FAITH            N/A     48  41  76 N8        30.10R
MOBRIDGE       CLOUDY    43  31  62 E6        30.10R
$$

SDZ012>016-024>037-041>051-057-063-072>074-241700-
SOUTHWEST AND SOUTH CENTRAL SOUTH DAKOTA

CITY           SKY/WX    TMP DP  RH WIND       PRES   REMARKS
RAPID CTY ARPT SUNNY     52  36  54 NW9       30.11R
PIERRE         CLOUDY    44  34  67 N7        30.10R
CUSTER         SUNNY     46  26  45 N14G20    30.10R
ELLSWORTH AFB  SUNNY     52  37  56 NW12      30.10R
PHILIP         MOSUNNY   52  40  63 VRB6      30.10R
PINE RIDGE     MOSUNNY   47  38  71 NE8       30.11R
SPEARFISH      FAIR      48  34  57 NW7       30.13R
WINNER         CLOUDY    46  35  65 N14       30.08R
$$

SDZ004>011-016>023-039-040-241700-
NORTHEAST SOUTH DAKOTA

CITY           SKY/WX    TMP DP  RH WIND       PRES   REMARKS
ABERDEEN       CLOUDY    37  30  75 NE12      30.12R
WATERTOWN      CLOUDY    36  34  92 NE13      30.07R
BROOKINGS      CLOUDY    38  34  85 NE16G22   30.03R
SISSETON         N/A     36  35  96 NE13      30.11R
$$

SDZ017-020-022-023-036>040-048>070-241700-
SOUTHEAST SOUTH DAKOTA

CITY           SKY/WX    TMP DP  RH WIND       PRES   REMARKS
SIOUX FALLS    CLOUDY    39  36  89 N14G26    30.00R
HURON          CLOUDY    38  36  92 N12       30.09R
CHAMBERLAIN    CLOUDY    43  37  79 N9        30.08R
MITCHELL       CLOUDY    42  37  82 N16       30.04F
YANKTON        CLOUDY    39  36  87 N13       30.01R
$$

ABBREVIATIONS USED IN REMARKS
   TC - TEMPERATURE IN CELSIUS
  WCI - WIND CHILL INDEX
   HX - HEAT INDEX
  VSB - VISIBILITY




USA.gov is the U.S. government's official web portal to all federal, state and local government web resources and services.